Location: Newark
(43.0000°N, 1.6781°W)
Time: 09:32:09
(UTC+00:00)

AO-7 - Pass Details

Date: 07 December 2022
Orbit: 1440 x 1459 km, 101.9° (Epoch: 28 January)

Event Time Altitude Azimuth Distance (km) Brightness Sun altitude
Rises 06:36:24 0° 11° (N) 4,545 ? -8.6°
Reaches altitude 10° 06:39:34 10° 2° (N) 3,565 ? -8.1°
Maximum altitude 06:46:23 30° 306° (NW) 2,364 ? -6.9°
Drops below altitude 10° 06:53:13 10° 250° (WSW) 3,561 ? -5.8°
Sets 06:56:24 0° 240° (WSW) 4,539 ? -5.3°
